Starlink 31706

operational
NORAD ID: 59437 Int'l Des: 2024-065 Owner: SPXS Country: US Constellation: starlink
LEOCIRCULAR

About Starlink 31706

Description loading...

Live Position

Loading 3D Globe...

Upcoming Passes

Altitude History

Altitude vs Time

uPlot chart will show altitude changes over time

Two-Line Element Set

1 59437U 24065S 26036.10189534 .00000832 00000-0 40232-4 0 9991
2 59437 53.1605 74.9263 0001460 98.5303 261.5864 15.30187118103911
Epoch: Feb 5, 2026 • Age: 14 hours

Current Status

Altitude 493.7 km
Velocity 7.62 km/s
Sub-Earth Point -50.49°S, 11.63°W
Launch Date Apr 7, 2024
Age 1.8 years
Type internet

Technical Details

Classification Payload
Mass 730.00 kg
Dry Mass 700.00 kg
Total Mass 730.00 kg
Length 0.30 m
Diameter 4.10 m
Span 29.00 m
Shape Box + pan
Manufacturer SPXS
Bus Type Starlink V2M
Phase Status In Orbit
Owner/State SPXS/US

Large Constellations

Loading constellations...